Walla Walla, WA

6:08 PM PDT on May 24, 2017 (GMT -0700)
Walla Walla Regional

Weather History for KALW - December, 2013

Change the Weather History Date:

Monday, December 2, 2013

  Actual Average Record
Temperature  
Mean Temperature 42 °F 36 °F  
Max Temperature 50 °F 41 °F 65 °F (1958)
Min Temperature 33 °F 31 °F 7 °F (1985)
Degree Days  
Heating Degree Days 24 29  
Month to date heating degree days 58  
Since 1 July heating degree days 1218  
Cooling Degree Days 0 0  
Month to date cooling degree days 0  
Year to date cooling degree days 850  
Moisture  
Dew Point 34 °F    
Average Humidity 76    
Maximum Humidity 92    
Minimum Humidity 53    
Precipitation  
Precipitation 0.07 in 0.09 in 1.18 in (1962)
Month to date precipitation 0.19  
Year to date precipitation 18.57  
Snow  
Snow 0.00 in 0.10 in 3.80 in (1985)
Month to date snowfall 0.2  
Year to date snowfall 7.5  
Since 1 July snowfall 1.5  
Snow Depth -    
Sea Level Pressure  
Sea Level Pressure 29.84 in    
Wind  
Wind Speed 14 mph (SW)    
Max Wind Speed 25 mph    
Max Gust Speed 32 mph    
Visibility 8 miles    
Events Snow    
T = Trace of Precipitation, MM = Missing Value Source: NWS Daily Summary

Daily Weather History Graph

Daily Weather History Graph

Search for Another Location

Airport or City:

Trip Planner

Search our weather history database for the weather conditions in past years. The results will help you decide how hot, cold, wet, or windy it might be!

Date:

Astronomy

Dec. 02, 2013 Rise Set
Actual Time 7:16 AM PST 4:08 PM PST
Civil Twilight 6:42 AM PST 4:42 PM PST
Nautical Twilight 6:04 AM PST 5:20 PM PST
Astronomical Twilight 5:28 AM PST 5:56 PM PST
Moon 6:44 AM PST (12/2) 4:17 PM PST (12/2)
Length of Visible Light 10h 00m
Length of Day
8h 52m
Waning Crescent, 0% of the Moon is Illuminated
Dec 2
Waning Crescent
Dec 2
New
Dec 9
First Quarter
Dec 17
Full
Dec 25
Last Quarter

Hourly Weather History & Observations

Time (PST) Temp. Windchill Dew Point Humidity Pressure Visibility Wind Dir Wind Speed Gust Speed Precip Events Conditions
12:37 AM 50.0 °F - 46.4 °F 87% 29.77 in 9.0 mi WSW 18.4 mph - N/A   Overcast
12:53 AM 50.0 °F - 46.0 °F 86% 29.78 in 10.0 mi SW 19.6 mph 27.6 mph N/A   Overcast
1:17 AM 50.0 °F - 44.6 °F 82% 29.77 in 10.0 mi SSW 20.7 mph 31.1 mph N/A   Overcast
1:53 AM 50.0 °F - 43.0 °F 77% 29.75 in 10.0 mi SW 25.3 mph 32.2 mph N/A   Overcast
2:53 AM 50.0 °F - 42.1 °F 74% 29.75 in 10.0 mi SW 10.4 mph - N/A   Overcast
3:30 AM 48.2 °F - 42.8 °F 82% 29.73 in 10.0 mi SSW 12.7 mph - N/A   Overcast
3:53 AM 48.9 °F - 43.0 °F 80% 29.73 in 10.0 mi SSW 12.7 mph - N/A   Overcast
4:27 AM 48.2 °F - 42.8 °F 82% 29.73 in 10.0 mi WSW 20.7 mph 29.9 mph 0.01 in   Overcast
4:53 AM 48.0 °F - 41.0 °F 77% 29.74 in 10.0 mi WSW 19.6 mph 31.1 mph 0.01 in   Overcast
5:53 AM 45.0 °F 38.5 °F 37.0 °F 74% 29.76 in 10.0 mi SW 13.8 mph - N/A   Overcast
6:53 AM 44.1 °F 38.6 °F 35.1 °F 71% 29.78 in 10.0 mi SW 10.4 mph 20.7 mph N/A   Overcast
7:53 AM 43.0 °F 36.8 °F 33.1 °F 68% 29.80 in 10.0 mi SW 11.5 mph - N/A   Overcast
8:53 AM 42.1 °F 36.1 °F 32.0 °F 67% 29.80 in 10.0 mi West 10.4 mph - N/A   Overcast
9:53 AM 43.0 °F 38.2 °F 33.1 °F 68% 29.81 in 10.0 mi SSW 8.1 mph - N/A   Overcast
10:53 AM 42.1 °F 35.2 °F 33.1 °F 70% 29.81 in 10.0 mi SW 12.7 mph - N/A   Overcast
11:53 AM 43.0 °F 36.0 °F 32.0 °F 65% 29.81 in 10.0 mi SW 13.8 mph - N/A   Mostly Cloudy
12:53 PM 44.1 °F 37.1 °F 30.0 °F 58% 29.81 in 10.0 mi WSW 15.0 mph - N/A   Mostly Cloudy
1:53 PM 43.0 °F 35.1 °F 30.0 °F 60% 29.82 in 10.0 mi WSW 17.3 mph - N/A   Partly Cloudy
2:53 PM 42.1 °F 34.9 °F 26.1 °F 53% 29.83 in 10.0 mi West 13.8 mph - N/A   Overcast
3:53 PM 39.0 °F 31.8 °F 28.9 °F 67% 29.85 in 6.0 mi WSW 11.5 mph - 0.04 in   Ice Pellets
4:53 PM 37.9 °F 31.5 °F 28.9 °F 70% 29.86 in 10.0 mi SW 9.2 mph - 0.01 in   Scattered Clouds
5:53 PM 37.0 °F 28.9 °F 28.9 °F 73% 29.89 in 9.0 mi SW 12.7 mph - N/A   Overcast
6:53 PM 36.0 °F 28.5 °F 28.9 °F 76% 29.91 in 9.0 mi SW 10.4 mph - 0.01 in   Scattered Clouds
7:53 PM 35.1 °F 26.9 °F 28.9 °F 78% 29.94 in 9.0 mi South 11.5 mph - 0.00 in Snow Light Snow
8:53 PM 35.1 °F 28.6 °F 28.9 °F 78% 29.95 in 9.0 mi SSE 8.1 mph - 0.00 in Snow Light Snow
9:24 PM 35.6 °F 29.9 °F 28.4 °F 75% 29.93 in 7.0 mi SSW 6.9 mph - 0.00 in Snow Light Snow
9:39 PM 33.8 °F 29.6 °F 30.2 °F 87% 29.94 in 1.8 mi SW 4.6 mph - 0.00 in Snow Light Snow
9:53 PM 33.1 °F 28.7 °F 30.0 °F 89% 29.97 in 2.0 mi SSW 4.6 mph - 0.00 in Snow Light Snow
10:22 PM 33.8 °F 28.6 °F 30.2 °F 87% 29.95 in 3.0 mi SSE 5.8 mph - 0.00 in Snow Light Snow
10:53 PM 33.1 °F 26.9 °F 30.9 °F 92% 29.98 in 7.0 mi SSE 6.9 mph - 0.00 in Snow Light Snow
11:44 PM 33.8 °F 29.6 °F 30.2 °F 87% 29.96 in 2.0 mi SSE 4.6 mph - 0.00 in Snow Light Snow
11:53 PM 33.1 °F 30.0 °F 30.9 °F 92% 29.99 in 1.8 mi South 3.5 mph - 0.00 in Snow Light Snow